Content
SEND FEEDBACK

United States of America Flag

MIDLAND, MICHIGAN


Home > North America > United States > Michigan
Elevation: 628 feet     Latitude: 43 39N     Longitude: 084 15W

WEATHER
 
SELECT A DAY
Number of Records: 148,980;   Date Range: 1/13/10 - 3/22/16
 
SHARE

PRINT THIS DATA

[ ← Previous Day ]
WEATHER ALMANAC - FEBRUARY 4, 2013
[ Next Day → ]
[ °C ]   °F
Weather ElementAverageHighLow
Temperature14.2 °F22.8 °F (4:34 pm)3.9 °F (11:54 pm)
Dewpoint8.6 °F12.2 °F (8:13 am)0.5 °F (11:54 pm)
Humidity79.4 %91 % (1:14 am)51 % (5:14 pm)
Barometer29.94 in29.98 in (2:34 am)29.87 in (5:35 pm)
Wind Speed0.3 mph6.9 mph (4:34 pm)
Weather ElementAverage
Visibility8.7 mi
Wind DirectionNNE (17.1 °)

Weather ElementTotal
Precipitation---
Heating Degree Days51.7 (Base 65)
Averaged from 66 records on February 4, 2013
WEATHER CONDITIONS BREAKOUT
WIND DIRECTION BREAKOUT
WEATHER BY HOUR - FEBRUARY 4, 2013
[ °C ]   °F
Local TimeTemperatureDewpointHumidityBarometerVisibilityWind DirectionWind SpeedGust SpeedPrecipitationEventsConditions
12:33 AM11.3 °F8.6 °F89 %29.96 in7.0 miWest (260°)3.5 mphSnowLight Snow
12:54 AM10.9 °F8.4 °F90 %29.97 in10.0 miCalmSnowLight Snow
1:14 AM9.7 °F7.5 °F91 %29.97 in10.0 miCalmMostly Cloudy
1:33 AM10.0 °F7.7 °F90 %29.97 in10.0 miCalmOvercast
1:54 AM12.6 °F9.5 °F88 %29.97 in10.0 miCalmOvercast
2:13 AM12.6 °F9.7 °F88 %29.97 in10.0 miCalmSnowLight Snow
2:34 AM13.6 °F10.4 °F87 %29.98 in10.0 miCalmOvercast
2:53 AM13.5 °F10.4 °F88 %29.98 in10.0 miCalmOvercast
3:14 AM13.5 °F10.4 °F88 %29.98 in10.0 miCalmOvercast
3:34 AM13.5 °F10.6 °F88 %29.98 in10.0 miCalmOvercast
3:53 AM13.6 °F10.8 °F88 %29.97 in10.0 miCalmOvercast
4:14 AM13.6 °F10.8 °F88 %29.97 in10.0 miCalmOvercast
5:53 AM12.7 °F10.4 °F90 %29.96 in10.0 miCalmOvercast
6:14 AM12.6 °F10.2 °F90 %29.95 in10.0 miCalmMostly Cloudy
6:34 AM13.1 °F10.8 °F90 %29.95 in10.0 miCalmOvercast
7:14 AM13.8 °F11.3 °F90 %29.95 in5.0 miCalmOvercast
7:33 AM14.4 °F11.8 °F90 %29.96 in4.0 miCalmSnowLight Snow
7:54 AM14.7 °F12.0 °F89 %29.96 in3.0 miCalmSnowLight Snow
8:13 AM14.9 °F12.2 °F89 %29.97 in2.5 miCalmSnowLight Snow
8:26 AM14.9 °F12.2 °F89 %29.97 in1.8 miCalmSnowLight Snow
9:06 AM15.4 °F12.2 °F87 %29.98 in2.0 miCalmSnowLight Snow
9:14 AM15.3 °F11.3 °F84 %29.98 in3.0 miCalmSnowLight Snow
9:34 AM15.4 °F11.3 °F84 %29.98 in3.0 miCalmSnowLight Snow
9:54 AM15.4 °F11.1 °F83 %29.98 in3.0 miCalmSnowLight Snow
10:14 AM15.6 °F11.1 °F82 %29.98 in3.0 miCalmSnowLight Snow
10:34 AM15.8 °F11.3 °F82 %29.97 in5.0 miCalmHaze
10:54 AM16.2 °F11.1 °F81 %29.97 in5.0 miCalmHaze
11:14 AM16.3 °F11.5 °F81 %29.96 in7.0 miCalmOvercast
11:34 AM16.7 °F11.3 °F79 %29.96 in10.0 miCalmOvercast
11:54 AM17.1 °F11.1 °F77 %29.96 in10.0 miCalmOvercast
12:14 PM17.6 °F10.9 °F75 %29.95 in10.0 miCalmOvercast
12:34 PM18.0 °F11.8 °F77 %29.94 in10.0 miCalmOvercast
12:54 PM18.5 °F11.5 °F74 %29.93 in10.0 miCalmOvercast
1:14 PM18.5 °F11.3 °F73 %29.92 in10.0 miCalmOvercast
1:34 PM20.3 °F11.5 °F69 %29.92 in10.0 miCalmOvercast
1:54 PM20.7 °F10.8 °F66 %29.91 in10.0 miCalmOvercast
2:15 PM22.1 °F11.7 °F64 %29.91 in10.0 miCalmOvercast
2:34 PM21.0 °F11.1 °F66 %29.91 in10.0 miCalmOvercast
2:54 PM21.0 °F10.6 °F64 %29.90 in10.0 miCalmOvercast
3:14 PM21.2 °F9.7 °F61 %29.90 in10.0 miNW (310°)3.5 mphMostly Cloudy
3:34 PM22.5 °F10.9 °F61 %29.89 in10.0 miCalmClear
3:54 PM21.4 °F9.5 °F60 %29.89 in10.0 miCalmClear
4:15 PM22.1 °F9.1 °F58 %29.89 in10.0 miWNW (300°)3.5 mphClear
4:34 PM22.8 °F8.1 °F53 %29.88 in10.0 miWest (260°)6.9 mphClear
4:54 PM22.1 °F7.7 °F54 %29.88 in10.0 miCalmClear
5:14 PM21.2 °F5.5 °F51 %29.88 in10.0 miCalmClear
5:35 PM20.3 °F5.0 °F52 %29.87 in10.0 miCalmClear
5:48 PM19.8 °F5.5 °F54 %29.88 in10.0 miCalmClear
6:14 PM16.2 °F6.4 °F66 %29.88 in10.0 miCalmClear
6:34 PM13.5 °F6.6 °F74 %29.88 in10.0 miCalmClear
6:55 PM11.1 °F6.4 °F81 %29.89 in10.0 miCalmClear
7:14 PM10.8 °F4.3 °F75 %29.89 in10.0 miCalmClear
7:34 PM10.9 °F5.9 °F80 %29.90 in10.0 miCalmClear
7:54 PM10.6 °F5.9 °F81 %29.92 in10.0 miCalmClear
8:14 PM10.8 °F6.1 °F81 %29.92 in10.0 miCalmClear
8:34 PM7.9 °F5.0 °F88 %29.92 in10.0 miCalmClear
8:54 PM8.6 °F5.9 °F89 %29.92 in10.0 miCalmClear
9:14 PM7.2 °F4.8 °F90 %29.92 in10.0 miCalmClear
9:34 PM7.0 °F4.5 °F89 %29.92 in10.0 miCalmClear
9:54 PM4.8 °F2.3 °F89 %29.92 in10.0 miCalmClear
10:14 PM5.4 °F3.2 °F91 %29.92 in10.0 miCalmClear
10:34 PM4.8 °F2.3 °F89 %29.92 in10.0 miCalmClear
10:54 PM5.0 °F2.1 °F88 %29.92 in10.0 miCalmClear
11:14 PM5.0 °F2.1 °F88 %29.92 in10.0 miCalmClear
11:34 PM4.1 °F0.7 °F86 %29.93 in10.0 miCalmClear
11:54 PM3.9 °F0.5 °F86 %29.93 in10.0 miCalmClear
Hourly data recorded from KIKW, located miles away from Midland, Michigan




STORIES FROM OUR PARTNERS